Regional Weather Roundup
Issued by NWS

Home | Current Version | Previous Version | Graphics & Text | Print | Product List | Glossary On
Versions: 1 2 3 4 5 6 7 8 9 10 11 12 13 14 15 16 17 18 19 20 21 22 23 24 25 26 27 28 29 30 31 32 33 34 35 36 37 38 39 40 41 42 43 44 45 46 47 48 49 50
033
ASUS43 KTOP 271708
RWRKS

WEATHER ROUNDUP FOR KANSAS
NATIONAL WEATHER SERVICE GOODLAND KS
1200 PM CDT SAT MAY 27 2017

NOTE:  "FAIR" INDICATES FEW OR NO CLOUDS BELOW 12,000 FEET WITH NO
SIGNIFICANT WEATHER AND/OR OBSTRUCTIONS TO VISIBILITY.

KSZ001>006-013>018-027>032-041>047-271800-
NORTHWEST KANSAS

CITY           SKY/WX    TMP DP  RH WIND       PRES   REMARKS
GOODLAND       CLOUDY    60  53  77 N17G25    30.01R
HAYS           CLOUDY    68  59  73 NW6       29.90R
HILL CITY      PTSUNNY   69  59  70 NW9       29.92R
RUSSELL        CLOUDY    67  59  75 NW6       29.88R
$$

KSZ061>065-074>080-084>089-271800-
SOUTHWEST KANSAS

CITY           SKY/WX    TMP DP  RH WIND       PRES   REMARKS
DODGE CITY     PTSUNNY   74  53  48 NE9G21    29.90R
ELKHART          N/A     67  50  54 NE12        N/A
GARDEN CITY    CLOUDY    71  52  50 N12       29.94R
GREAT BEND     LGT RAIN  70  59  68 VRB7      29.88R
LIBERAL        PTSUNNY   72  57  59 NE17G23   29.93R
PRATT          CLOUDY    71  50  47 NE10G17   29.87R
$$

KSZ066>073-081>083-090>101-271800-
SOUTHEAST KANSAS

CITY           SKY/WX    TMP DP  RH WIND       PRES   REMARKS
CHANUTE        CLOUDY    73  65  75 N15G23    29.84R
COFFEYVILLE    LGT RAIN  78  78 100 SW6       29.80S
HUTCHINSON     PTSUNNY   77  57  50 E15       29.83S
MEDICINE LODGE   N/A     75  56  51 NE17G29   29.80R
NEWTON         CLOUDY    74  56  53 NE13      29.86R
PARSONS        CLOUDY    76  71  85 N9        29.82R
WICHITA INTL   PTSUNNY   77  58  51 NE23G31   29.81F
WICHITA JABRA  PTSUNNY   78  60  53 NE23G29   29.82F
WICHITA MCCONL PTSUNNY   79  58  49 NE20G25   29.82S
WINFIELD       CLOUDY    75  65  70 NE20G26   29.81F
$$

KSZ007>012-019>026-033>040-048>060-102>105-271800-
NORTHEAST KANSAS

CITY           SKY/WX    TMP DP  RH WIND       PRES   REMARKS
CONCORDIA      MOSUNNY   67  61  81 VRB6      29.85R
EMPORIA        MOSUNNY   76  60  57 E15       29.82F
LAWRENCE       CLOUDY    65  63  93 E8        29.87F
MANHATTAN      PTSUNNY   67  61  81 SE10      29.83R
MARYSVILLE     CLOUDY    63  59  88 NE9       29.83R
OLATHE IND     TSTM      62  60  93 W9G49     29.91R VSB 1/4
OLATHE EXE     CLOUDY    70  59  68 N17G23    29.85F THUNDER
SALINA         LGT RAIN  70  60  70 E5        29.85R
TOPEKA BILLARD CLOUDY    64  62  93 E16G23    29.75F
TOPEKA FORBES  LGT RAIN  67  60  78 VRB7G26   29.81F
$$




USA.gov is the U.S. government's official web portal to all federal, state and local government web resources and services.